GFSSGP_con_sbcape_132.txt.gz
CAPE
0 0 0 0 0 0 0 0 1 35 1 0 0 6 237 142 152 462 880 1302 1344 1377 1707 1675 2510 2723 2759 2685 2367 1983 1659 1647 1648 1654 1665 1705 1794 1733 1991 2151 1955 1399 542 329 317 291 246 200 119
0 0 0 0 0 0 0 0 5 25 0 0 0 53 869 361 203 1334 629 1535 1223 1521 1637 1540 2448 2644 2727 2554 2248 1894 1745 1777 1790 1750 1734 1795 1845 1739 1781 1961 1642 863 262 51 107 173 170 179 180
0 0 0 0 0 0 0 48 45 30 0 0 0 955 1038 44 907 1573 675 1665 1311 1572 1696 2049 2414 2497 2641 2492 2194 1969 1857 1901 1902 1868 1852 1820 1868 1772 1708 1578 1181 544 171 17 46 135 226 123 142
0 0 0 0 0 0 0 0 17 1 0 0 0 820 492 257 1376 1232 735 1332 1129 1056 1683 1995 2304 2379 2509 2476 2258 2147 2094 2028 1954 1938 1859 1791 1719 1642 1527 1301 1039 597 213 21 69 269 369 285 171
0 0 0 0 0 0 0 13 15 3 1 0 0 1166 781 1217 1124 864 965 985 1037 1104 1792 1592 2183 2324 2393 2424 2349 2203 2087 1968 1959 1950 1864 1753 1611 1488 1385 1234 1083 716 245 96 136 265 466 435 348
0 0 0 0 0 0 0 2 11 0 0 0 0 742 1465 1097 844 768 803 876 831 2055 1380 1302 1988 2169 2190 2244 2258 2146 2021 1946 1959 1871 1774 1709 1537 1401 1309 1199 1046 738 434 256 216 276 405 471 429
0 0 0 0 0 0 28 0 0 0 1 2 3 349 1442 872 871 675 625 898 1391 1734 1124 1127 1003 1666 2055 2045 2003 1980 1891 1865 1819 1703 1645 1577 1457 1345 1242 1119 918 610 443 339 248 264 238 229 234
0 0 0 0 0 0 56 71 5 0 0 0 2 775 1499 1110 1048 924 721 802 1016 1200 902 731 757 690 966 1270 1858 1807 1749 1734 1652 1565 1519 1421 1331 1262 1130 932 794 607 464 407 301 236 157 103 98
0 0 0 0 0 0 0 0 0 0 0 0 0 1420 1777 1419 1079 919 791 876 882 1166 900 553 253 355 257 390 1019 1482 1348 1367 1438 1316 1434 980 296 406 266 228 616 786 611 447 378 300 220 160 132
0 0 0 0 0 0 0 0 0 0 0 0 0 417 1587 996 1397 1289 1040 877 839 1116 794 570 403 374 222 67 754 495 341 368 382 242 689 241 4 168 0 317 910 864 771 640 592 509 418 290 0
0 0 0 0 0 0 0 0 0 0 0 0 0 14 80 1139 1199 1242 1072 845 789 815 824 555 918 839 400 310 599 269 317 265 286 293 546 245 23 222 168 668 197 318 578 76 186 152 95 0 0
0 0 0 0 0 0 0 0 0 1 0 0 0 0 0 64 292 838 825 670 704 856 928 873 1498 1474 1658 909 1161 406 465 382 364 336 1030 666 344 912 825 146 265 326 100 47 90 55 96 41 61
0 0 0 0 0 0 0 0 0 0 0 0 0 0 0 0 6 894 664 540 723 947 1077 1172 1748 2212 2412 3799 1324 949 715 801 758 702 787 622 917 678 1107 913 424 501 352 230 480 306 739 739 373
0 0 3 6 4 1 0 0 0 0 0 0 0 0 0 0 28 132 780 1348 562 614 911 1948 2026 3008 2868 3204 3827 2890 3051 1982 1807 1515 1245 1129 1719 2403 1819 2290 1934 1842 1882 1011 599 846 1247 1274 1190
4 20 69 61 24 6 0 0 0 0 0 0 0 0 0 0 0 76 519 456 486 647 70 1803 3018 3350 3476 3319 3678 3407 2638 1912 2665 2019 3126 1937 2300 2829 3336 2489 2331 2148 2112 2709 2228 2185 2074 2240 1639
13 93 80 41 24 20 1 0 0 0 0 0 0 0 0 0 0 0 516 155 28 0 322 2544 2075 3469 3962 4116 3795 3328 2689 3430 2546 2942 2373 2673 2711 2428 3200 2771 2027 1668 1918 2160 2096 1946 1954 1831 1814
26 94 65 40 53 30 0 0 0 0 0 0 0 0 0 0 0 0 0 24 16 0 183 1552 1837 2629 3981 4226 3843 3823 3903 3644 3485 2961 3060 2516 2631 2771 2725 2325 1960 2776 2860 2943 2255 2123 2175 2127 2432
32 84 79 120 44 62 0 0 0 0 0 0 0 0 0 0 4 2 0 0 45 111 447 227 1885 1873 4051 3963 3649 3292 3147 3054 3286 2669 2594 2740 2424 2536 2755 2278 1984 2141 2342 2617 2270 2157 2703 2694 2450
9 91 74 98 26 0 0 0 0 2 0 0 0 0 0 0 0 39 31 21 9 75 68 705 752 1964 3103 2746 3079 2849 2496 2883 2580 2711 3530 2465 2330 2474 2683 2485 2219 2535 1842 2758 2690 2670 2931 2298 2023
8 103 13 12 34 0 0 0 0 0 0 0 0 0 0 0 0 42 50 61 65 75 223 260 791 1556 3288 2713 2733 2661 2593 1920 2288 2238 2771 3098 1987 1662 1771 1803 1631 1859 2203 2882 3077 2875 2472 2327 2322
10 7 25 7 2 0 0 0 0 0 0 0 0 0 1 27 0 64 59 126 122 93 96 372 1073 1457 2268 3202 3273 3874 3293 3598 3082 2928 3432 2637 1970 2086 1890 1896 1933 2230 2397 2293 2867 3203 2573 2284 1684
59 1 11 18 41 0 0 0 0 0 0 0 0 4 1 1 18 75 60 80 111 175 253 114 118 1485 1248 3099 2728 3717 2872 2162 2698 2149 2627 2787 2984 2981 3147 2427 2501 2462 2956 2531 2395 2668 2437 1941 1375
7 30 41 8 33 2 3 0 0 0 0 0 0 8 5 54 31 51 34 129 286 774 962 1166 1575 2066 2157 3449 3336 3329 3256 3037 2972 2566 4364 3468 3354 3016 2576 2580 2372 3107 2882 1971 1932 1662 2086 1621 1549
1 2 6 6 26 29 0 0 0 0 0 0 0 7 2 9 34 49 91 196 289 560 1022 1331 1649 2011 2064 1767 1964 2528 2963 3019 3097 2447 2106 2536 2585 2536 2255 1964 2264 2082 2062 1688 1511 1487 1183 1278 1184
18 113 40 37 25 0 0 2 0 8 0 0 0 0 8 6 5 9 29 23 146 171 341 407 689 628 728 713 518 944 638 2397 2525 2185 1298 1577 2028 2097 2306 1470 1413 1098 1281 1264 1113 1308 1135 1505 1071
21 55 47 22 15 0 0 0 2 15 0 0 3 0 4 6 1 1 6 0 0 9 44 16 40 43 107 279 243 412 483 225 284 640 666 398 241 208 1683 709 1208 1204 1109 1336 1031 997 921 702 663
17 0 2 17 0 23 30 71 31 1 28 46 22 20 1 43 54 1 0 5 0 1 10 0 7 0 0 2 129 182 189 213 141 191 434 295 333 170 252 469 675 1006 1034 1015 1034 948 809 865 832
21 9 6 10 125 31 78 116 109 52 29 45 25 57 27 8 0 0 1 52 45 31 0 0 0 0 0 0 0 6 65 39 96 121 164 223 397 182 116 222 269 418 677 1175 1186 848 787 819 544
37 35 130 92 115 190 14 2 196 133 34 63 44 9 0 0 0 4 12 22 0 6 5 0 0 0 0 0 0 0 0 0 1 29 57 110 144 146 92 98 139 216 285 403 610 870 742 578 610
36 35 334 465 134 103 228 208 131 48 83 107 7 0 0 0 0 0 4 3 0 0 0 1 0 0 0 0 0 0 0 0 11 14 6 3 1 2 0 1 1 5 17 129 379 453 429 530 540

GFSSGP_con_sbcape_135.txt.gz
CAPE
0 0 0 0 0 0 0 0 0 0 0 75 366 320 506 314 402 537 706 1204 1127 1171 1634 2028 2328 2460 2294 2022 1806 1489 1391 1416 1369 1366 1433 1496 1658 1837 1886 1703 1354 1101 641 479 385 241 194 115 77
0 0 0 0 0 0 0 0 0 1 0 530 468 471 478 240 190 1178 1182 1246 1118 1239 1300 1796 2319 2413 2351 2070 1744 1449 1429 1435 1392 1389 1493 1536 1608 1805 1881 1723 1380 973 184 113 188 165 170 166 140
0 0 0 0 0 0 0 0 0 0 0 0 911 465 332 497 1085 1033 1057 1224 1147 974 1203 1954 2286 2295 2338 2120 1701 1487 1508 1492 1463 1446 1529 1565 1542 1651 1672 1452 1141 754 81 35 101 133 267 188 208
0 0 0 0 0 0 0 0 0 0 0 0 739 243 14 161 951 1367 932 1350 944 1045 1401 2124 2223 2240 2251 2073 1718 1535 1551 1558 1534 1554 1541 1561 1527 1421 1363 1203 974 744 304 54 121 423 558 329 201
0 0 0 0 0 0 0 0 0 0 0 0 241 230 147 0 721 1214 1145 1110 995 1330 1390 1866 2116 2213 2213 2093 1836 1649 1638 1516 1523 1595 1557 1540 1425 1283 1203 1121 1019 825 536 387 292 544 508 392 247
0 0 0 0 0 0 0 0 0 0 0 0 621 249 236 315 725 1071 982 919 1023 1314 1326 1651 2052 2083 2082 2091 1919 1735 1627 1545 1530 1536 1515 1437 1302 1216 1155 1099 1021 790 477 365 422 383 435 387 313
0 0 0 0 0 0 0 0 0 0 0 0 127 956 641 472 328 716 758 937 1427 970 1011 1327 1648 1893 2037 1974 1840 1697 1553 1520 1508 1426 1361 1293 1218 1158 1113 1017 896 651 420 288 291 283 291 224 203
0 0 0 0 0 0 0 0 0 0 0 0 141 922 559 129 59 236 1253 1434 902 710 689 761 1105 1464 1576 1688 1883 1734 1606 1572 1495 1395 1335 1182 1150 1113 1089 755 734 635 445 398 324 289 226 118 99
0 0 0 0 0 0 0 0 0 0 0 0 1686 1503 673 52 500 122 1273 1210 712 532 452 325 589 643 882 1092 1527 1683 1719 1659 1518 1394 1298 897 492 664 681 551 605 734 576 489 364 248 132 90 91
0 0 0 0 0 0 0 0 0 0 0 0 1071 352 109 81 656 594 180 1005 850 542 407 211 104 197 130 631 1024 920 1148 1072 871 735 805 270 28 73 68 154 607 710 680 521 396 306 231 244 11
0 0 0 0 0 0 0 0 0 0 0 0 393 279 19 0 150 11 45 289 849 588 394 100 0 0 0 155 357 130 150 130 149 84 272 32 0 0 1 0 34 273 483 22 136 113 78 27 0
0 0 0 0 0 0 0 0 0 0 0 0 0 205 42 13 0 0 33 52 171 670 419 158 30 17 0 254 14 6 0 0 0 0 11 0 0 0 0 18 6 13 0 10 0 0 0 0 0
0 0 0 0 0 0 0 0 0 0 0 0 0 0 20 1 0 192 31 181 295 447 314 349 194 91 401 229 30 11 42 0 4 0 38 0 0 0 0 3 0 15 21 15 0 0 0 6 5
0 0 0 0 0 0 0 0 0 0 0 0 0 0 0 0 35 154 88 236 0 7 0 10 798 847 1182 593 674 50 54 43 42 23 36 177 128 0 0 71 48 157 64 51 43 76 86 128 127
0 0 0 0 0 20 0 0 0 0 0 0 0 0 0 0 2 153 349 179 31 0 0 0 4 405 1294 1850 2252 1681 368 301 368 384 116 145 203 470 875 706 614 369 564 522 208 312 875 1323 1019
0 0 0 0 13 15 2 0 0 0 0 0 0 0 0 0 0 24 428 121 64 0 2 0 0 13 1445 2078 2176 2233 1767 1346 1045 891 679 300 558 1146 1493 1681 1399 1066 790 1003 738 493 508 599 728
0 0 0 0 0 2 3 0 0 0 0 0 0 0 0 0 0 0 235 140 15 4 0 0 0 0 432 2492 2331 2498 2286 1761 2050 1198 1447 1090 945 1352 1356 1585 1350 1065 1442 1379 1656 1283 902 981 1416
0 0 0 0 0 8 0 0 0 0 0 0 0 0 0 0 0 0 0 4 0 0 0 0 0 93 200 2948 2990 2837 2367 2566 2345 2022 1969 1735 1877 1642 1556 1388 1351 1336 1170 1259 1421 1073 1290 1530 1122
0 0 1 11 0 39 10 0 0 0 0 0 0 0 0 0 0 0 0 0 0 0 0 0 0 154 1015 2952 2974 2539 2574 2264 1952 2029 1733 1720 1400 1435 1327 1474 1238 1441 1104 924 1068 1147 644 648 747
0 2 35 26 15 91 4 0 0 0 0 0 0 0 0 0 0 0 0 0 0 0 12 71 74 119 642 1988 2265 2034 1678 1325 1847 1632 1639 1803 1738 1252 536 128 1084 1305 998 802 928 1204 1049 1175 910
0 1 19 18 58 9 0 0 0 0 0 0 0 0 0 0 0 0 0 0 0 0 2 2 12 145 171 421 1447 1361 1496 1352 1523 1467 1457 1919 789 208 50 282 1086 719 622 11 18 606 1194 995 1033
0 0 0 0 0 3 0 0 0 0 0 0 0 0 0 0 0 0 0 0 136 275 285 415 510 594 333 1036 1242 1385 1604 1119 779 1125 1200 1949 447 74 123 444 1148 875 755 294 18 497 1369 1204 1102
0 0 0 0 0 0 0 0 0 0 0 0 0 0 0 0 0 0 0 48 219 386 580 662 662 590 584 667 1211 1415 1236 1307 1484 932 1167 988 1197 0 0 232 1178 1413 1050 803 681 687 1001 1000 585
0 3 5 0 0 0 0 0 0 0 0 0 0 0 0 0 0 0 0 19 100 200 219 146 38 32 28 13 22 8 9 509 878 90 38 398 643 886 230 799 1200 1149 856 383 208 267 230 307 349
1 37 17 42 1 0 0 0 0 0 0 0 0 0 0 0 0 0 0 0 0 33 34 42 1 0 4 2 10 3 0 0 4 0 0 0 0 66 238 216 193 250 188 154 102 288 222 225 222
0 2 2 7 0 0 0 0 0 0 0 0 0 0 0 0 0 0 0 0 0 0 0 0 0 0 0 0 0 0 0 0 0 0 2 0 0 0 0 8 77 147 179 164 105 89 175 200 115
0 0 1 6 0 26 53 31 0 0 0 0 0 0 0 0 0 0 0 0 0 0 0 0 0 0 0 0 0 0 0 0 0 0 0 0 0 0 0 0 0 0 0 120 138 250 200 138 77
25 3 4 0 0 1 39 15 10 0 0 0 0 0 0 0 0 0 0 0 0 0 0 0 0 0 0 0 0 0 0 0 0 0 0 0 0 0 0 0 2 3 13 42 168 366 317 314 235
0 2 50 6 0 52 1 0 5 10 0 0 1 0 0 0 0 0 0 0 0 0 0 0 0 0 0 0 0 0 0 0 0 0 0 0 0 0 0 0 0 0 0 1 13 46 123 239 211
1 0 12 60 145 42 2 0 17 6 11 2 0 0 0 0 0 0 0 0 0 0 0 0 0 0 0 0 0 0 0 0 0 0 0 0 0 0 0 0 0 0 0 0 0 0 2 57 114

GFSSGP_con_sbcape_141.txt.gz
CAPE
0 0 0 0 0 0 0 0 0 0 2 0 0 1 9 48 108 0 187 499 787 1171 1389 1612 1833 1811 1791 1641 1318 1193 1126 1083 1131 1075 1157 1235 1158 1183 1328 1743 1848 1316 865 358 206 160 101 141 126
0 0 0 0 0 0 0 0 0 0 0 5 13 14 15 110 722 667 674 579 852 1161 1190 1132 1815 1822 1773 1596 1366 1239 1198 1146 1181 1222 1158 1274 1314 1121 935 1290 1369 872 554 346 182 140 98 111 94
0 0 0 0 0 0 0 0 0 0 0 51 142 177 165 263 1258 764 678 728 919 1039 1071 1056 1805 1742 1738 1592 1418 1296 1227 1227 1209 1122 1189 1252 1404 1460 1336 1225 1071 506 129 97 96 198 150 88 56
0 0 0 0 0 0 0 0 0 0 0 0 292 262 184 27 1004 917 810 773 912 1004 1094 1724 1746 1725 1659 1575 1480 1362 1310 1318 1339 1177 1158 1248 1355 1516 1385 1159 891 488 37 82 66 208 142 74 17
0 0 0 0 0 0 0 0 0 0 0 0 232 152 33 1059 1195 920 666 713 778 904 1369 1937 2008 1892 1763 1614 1443 1462 1347 1363 1436 1413 1120 1187 1360 1407 1294 1111 837 392 134 110 256 318 344 266 84
0 0 0 0 0 0 0 0 0 0 0 0 90 54 244 1151 1111 888 599 498 730 1204 1653 1907 2138 2023 1848 1711 1561 1495 1387 1372 1476 1561 1491 1477 1415 1370 1233 1077 911 661 519 387 317 463 506 343 214
0 0 0 0 0 0 0 0 0 0 0 0 81 442 519 869 1035 647 807 919 1068 1342 1504 1677 1810 1902 1913 1735 1583 1540 1422 1365 1428 1444 1475 1423 1317 1254 1203 1063 1018 940 669 585 616 523 492 391 288
0 0 0 0 0 0 0 0 0 0 0 90 731 575 566 390 654 1089 837 732 781 1093 1201 1139 1363 1611 1448 1524 1728 1642 1502 1467 1416 1393 1392 1286 1237 1181 1207 932 932 980 760 592 533 472 377 260 129
0 0 0 0 0 0 0 0 0 0 0 648 459 563 605 950 1017 779 660 603 625 824 765 899 920 955 983 1194 1430 1647 1467 1528 1502 1470 1425 1038 686 677 711 774 683 1003 926 758 595 495 383 219 110
0 0 0 0 0 0 0 0 0 0 0 0 462 267 808 582 740 763 665 503 409 403 395 453 529 512 683 1306 1194 1160 1192 1225 1116 1075 953 620 374 225 423 602 908 980 1057 875 675 548 463 308 2
0 0 0 0 0 0 0 0 0 0 0 0 247 253 248 204 544 507 571 674 608 323 360 253 264 322 562 819 939 724 976 795 802 794 643 405 253 16 234 97 143 300 311 253 226 93 26 4 0
0 0 0 0 0 0 0 0 0 0 0 0 0 278 131 274 187 242 438 436 640 442 165 112 75 73 55 315 580 411 503 340 496 500 458 279 28 0 0 0 0 0 0 37 5 4 0 0 0
0 0 0 0 0 0 0 0 0 0 0 0 27 215 322 67 56 267 417 458 279 344 184 29 11 7 20 38 252 183 282 329 347 209 102 87 3 0 0 0 0 0 0 0 0 0 0 0 0
0 0 0 0 0 0 0 0 0 0 0 0 0 0 7 7 35 207 277 331 182 226 226 104 74 17 80 110 105 48 26 74 33 10 1 13 0 0 0 0 0 0 0 0 0 6 0 0 0
0 0 0 0 0 0 0 0 0 0 0 0 0 0 0 4 21 75 41 321 216 193 167 215 179 114 0 67 279 101 8 11 19 18 0 0 1 0 0 0 0 0 0 0 0 0 3 0 0
0 0 0 0 0 0 0 0 0 0 0 0 0 0 0 0 2 36 126 294 295 145 287 344 518 294 22 0 104 448 90 12 16 18 14 26 27 3 2 0 0 0 0 0 0 6 46 66 81
0 0 0 0 0 0 0 0 0 0 0 0 0 0 0 0 0 0 335 457 379 258 179 184 125 165 44 0 3 357 608 55 38 45 74 51 39 68 27 32 71 150 259 319 215 319 244 409 294
0 0 0 0 0 0 0 0 0 0 0 0 0 0 0 0 0 37 368 407 345 223 111 8 39 66 0 2 645 665 1562 1284 574 201 167 237 119 126 90 121 233 463 552 524 536 702 416 527 312
0 0 0 0 0 0 0 0 0 0 0 0 0 0 0 0 0 309 325 213 195 37 80 49 7 3 0 0 63 1618 2131 1775 1470 1258 983 681 634 429 213 252 265 435 649 804 528 383 384 374 106
0 0 0 0 0 0 0 0 0 0 0 0 0 0 0 0 0 0 82 122 82 60 15 15 0 0 0 0 1 422 1659 1504 1242 1109 1113 1243 1270 1234 667 678 562 592 674 648 422 452 514 397 77
0 0 0 0 0 0 0 0 0 0 0 0 0 0 0 0 0 0 0 0 0 3 7 2 0 0 0 0 81 564 692 624 442 297 416 490 751 1202 1338 967 688 454 473 726 431 251 342 454 138
0 0 0 0 0 0 0 0 0 0 0 0 0 0 0 0 0 0 0 0 0 0 0 5 24 108 227 316 76 372 327 341 93 61 96 139 45 135 117 137 109 95 136 300 346 136 106 290 319
0 0 0 0 0 0 0 0 0 0 0 0 0 0 0 0 0 0 55 162 263 159 3 0 0 0 0 0 10 32 0 0 0 0 0 0 0 0 0 0 0 0 80 300 379 232 31 42 151
0 0 0 0 0 0 0 0 0 0 0 0 0 0 0 0 1 121 202 181 12 0 0 0 0 0 0 0 0 0 0 0 0 0 0 0 0 0 0 0 0 0 76 244 340 125 150 286 314
0 0 0 0 2 0 0 0 0 0 0 0 0 0 0 23 319 276 132 41 0 0 0 0 0 0 0 0 0 0 0 0 0 0 0 0 0 0 0 0 0 0 0 0 0 0 8 30 105
0 0 0 4 0 0 0 0 0 0 0 0 0 0 0 149 338 204 42 0 0 0 0 0 0 0 0 0 0 0 0 0 0 0 0 0 0 0 0 0 0 0 0 0 0 0 0 0 0
0 0 0 0 0 0 0 0 0 0 0 0 0 0 5 140 94 45 0 0 0 0 0 0 0 0 0 0 0 0 0 0 0 0 0 0 0 0 0 0 0 0 0 0 0 0 0 0 0
0 0 6 2 4 0 0 4 0 2 0 0 0 0 12 0 0 0 0 0 0 0 0 0 0 0 0 0 0 0 0 0 0 0 0 0 0 0 0 0 0 0 0 0 0 0 0 0 0
0 0 0 0 0 0 1 0 3 1 0 0 0 0 0 0 0 0 0 0 0 0 0 0 0 0 0 0 0 0 0 0 0 0 0 0 0 0 0 0 0 0 0 0 0 0 0 0 0
0 0 0 0 0 0 0 0 55 9 30 0 0 0 0 0 0 0 0 0 0 0 0 0 0 0 0 0 0 0 0 0 0 0 0 0 0 0 0 0 0 0 0 0 0 0 0 0 0

GFSSGP_con_sbcape_147.txt.gz
CAPE
0 0 0 0 0 0 0 0 0 0 0 0 1 76 167 177 15 12 577 512 1007 1439 1253 1186 1641 1588 1452 1358 1198 1219 1203 1199 1203 1173 1181 1350 1517 1473 1319 1414 1207 603 390 226 302 458 418 297 269
0 0 0 0 0 0 0 0 0 0 0 0 0 7 7 216 1064 813 424 887 1153 1384 1117 730 1652 1558 1437 1268 1108 1032 1061 1064 1066 1171 1329 1519 1602 1525 1222 1432 1146 591 292 255 197 274 283 311 408
0 0 0 0 0 0 0 0 0 0 0 0 58 170 203 825 994 601 748 1032 1277 1194 960 1135 1675 1471 1394 1262 1064 957 978 1047 1153 1185 1223 1337 1462 1546 1613 1514 1143 537 290 218 197 178 203 165 129
0 0 0 0 0 0 0 0 0 0 0 0 73 318 757 1414 1473 1099 1024 1052 1011 771 656 1584 1622 1469 1417 1278 1144 1006 947 1045 1123 1132 1155 1123 964 1106 1079 1038 794 258 146 176 179 186 107 64 15
0 0 0 0 0 0 0 0 0 0 0 0 260 286 1356 1474 1267 1116 1094 828 773 627 701 1070 1688 1518 1470 1395 1256 1176 1132 1025 1111 1209 1145 1059 1020 1049 1002 863 372 151 107 148 155 177 122 48 17
0 0 0 0 0 0 0 0 0 0 0 1 114 546 1462 1412 1338 1160 1009 809 643 805 857 1058 1580 1665 1503 1458 1322 1246 1212 1217 1238 1252 1322 1349 1197 1044 846 673 358 228 129 112 148 208 211 168 126
0 0 0 0 0 0 0 0 0 0 0 115 480 643 1399 1128 1108 1190 1122 1043 904 982 962 1095 933 1287 1610 1484 1306 1232 1205 1224 1229 1238 1295 1377 1348 1173 868 706 476 354 302 166 143 184 199 237 217
0 0 0 0 0 0 0 0 0 0 0 832 974 812 1414 1370 1300 1304 1255 1136 1032 1032 1176 1325 1384 1008 878 866 1382 1252 1217 1217 1149 1160 1203 1213 1239 1094 900 720 591 470 438 285 192 275 334 203 133
0 0 0 0 0 0 0 0 0 1 463 961 937 1060 1198 1447 1263 1390 1194 1110 1128 1170 1343 1324 1390 1428 1147 978 1081 1232 1062 1162 1187 1139 1234 741 396 423 391 386 546 527 592 532 605 541 406 301 220
0 0 0 0 0 0 0 0 0 28 993 1387 1499 1543 1578 1460 1260 1119 1027 900 973 1133 1196 1226 1279 1284 1253 1128 1306 1109 818 646 621 651 850 701 690 574 314 268 619 743 638 797 874 732 631 285 0
0 0 0 0 0 0 0 0 0 0 430 898 1665 1871 1613 1387 1243 1036 792 951 1002 959 933 1093 1411 1446 1181 1268 1475 1293 1205 1155 1075 956 1000 1053 773 680 549 372 215 274 392 179 67 40 7 10 57
0 0 0 0 0 0 0 0 0 0 0 103 1640 1903 1639 1307 1076 810 743 1049 1065 1012 1018 1042 1095 1269 1274 1439 1450 1364 1299 1326 1188 1056 1136 995 948 932 760 402 222 200 40 61 84 4 35 263 327
0 0 0 0 0 0 0 0 0 0 0 1320 1489 1518 1453 1230 1154 1056 1001 1004 1093 1193 1261 1205 1044 1042 1351 1713 1389 1307 1373 1294 1155 1140 1188 1012 868 940 836 594 338 65 4 0 36 109 303 444 478
0 0 0 0 0 0 0 0 0 0 274 1314 1357 1362 1380 1244 1108 1057 1228 1314 1314 1304 1292 1216 1086 1146 1182 1374 1453 1331 1207 1122 1137 1024 1117 1202 1168 1118 820 655 362 62 0 0 84 269 478 611 596
0 0 0 0 0 0 0 0 0 0 427 1144 1408 1400 1429 1503 1390 1422 1473 1618 1626 1372 1419 1230 1011 911 985 905 832 840 714 564 785 857 1019 1101 1195 1143 1022 590 282 53 17 17 6 237 510 583 730
0 0 0 0 0 0 0 0 0 0 0 361 624 436 616 805 1208 1259 1092 1422 1671 1648 1423 1162 649 557 508 490 474 478 510 550 603 537 555 668 745 729 707 309 243 154 89 77 119 263 203 456 725
0 0 0 0 0 0 0 0 0 0 0 0 0 0 1 19 203 468 769 949 1204 1321 1331 1185 884 607 426 344 360 490 1199 1127 957 912 689 724 516 390 511 450 706 760 557 544 671 864 987 746 1359
0 0 0 0 0 0 0 0 0 0 0 0 0 0 0 0 0 0 0 393 705 958 913 958 852 630 516 444 553 813 1236 1479 1349 1139 1039 924 1103 847 942 913 1132 993 990 1164 1311 1439 1356 1455 1671
0 0 0 0 0 0 0 0 0 0 0 0 0 0 0 0 0 6 261 509 782 909 908 780 895 924 649 569 532 769 691 668 654 1580 1947 1734 1301 1054 1397 1354 1372 1429 1410 1696 1607 1528 1571 1541 1572
0 0 0 0 0 0 0 0 0 0 1 0 0 0 0 0 0 5 655 826 1048 1081 928 762 670 519 444 396 426 403 588 613 1171 643 296 302 489 785 1125 1216 1365 1476 1551 1982 1841 1528 1633 1511 1589
0 0 0 0 0 0 0 0 0 0 0 0 0 0 0 0 0 0 184 857 924 997 790 667 554 385 300 240 225 406 1243 776 88 0 0 0 44 112 225 234 330 443 373 309 353 391 498 720 1083
0 0 0 0 0 0 0 0 0 0 0 0 0 0 0 0 0 0 62 404 622 548 383 404 389 621 996 960 1110 1303 861 50 0 0 0 0 0 0 0 0 1 14 70 130 355 404 525 478 660
0 0 0 0 0 0 0 0 0 0 0 0 0 0 0 0 0 1 44 285 331 319 361 404 616 902 858 562 372 42 0 0 0 0 0 0 0 0 0 0 0 0 0 0 7 134 238 270 237
0 0 0 0 0 0 0 0 0 0 0 0 0 0 0 0 0 0 96 347 279 258 285 399 345 282 157 35 0 1 0 0 0 0 0 0 0 0 0 0 0 0 0 0 0 0 0 10 149
0 0 0 0 0 0 0 0 0 0 0 0 0 0 0 0 0 2 339 303 290 239 181 76 39 0 0 0 0 0 0 0 0 0 0 0 0 0 0 0 0 0 0 0 0 0 0 0 0
0 0 0 0 0 0 0 0 0 0 0 0 0 0 0 0 0 19 395 365 338 196 69 7 0 0 0 0 0 0 0 0 0 0 0 0 0 0 0 0 0 0 0 0 0 0 0 0 0
0 0 0 0 0 0 0 0 0 2 0 0 1 0 0 0 0 47 491 451 356 168 40 14 0 0 0 0 0 0 0 0 0 0 0 0 0 0 0 0 0 0 0 0 0 0 0 0 0
0 0 0 0 0 0 0 0 0 0 0 0 2 0 0 0 51 387 541 481 307 128 26 0 0 0 0 0 0 0 0 0 0 0 0 0 0 0 0 0 0 0 0 0 0 0 0 0 0
0 0 0 0 0 0 0 0 28 26 16 29 45 0 0 32 389 590 548 395 151 20 0 0 0 0 0 0 0 0 0 0 0 0 0 0 0 0 0 0 0 0 0 0 0 0 0 0 0
0 0 0 0 0 0 6 0 76 109 71 76 56 0 16 381 673 647 312 101 52 8 0 0 0 0 0 0 0 0 0 0 0 0 0 0 0 0 0 0 0 0 0 0 0 0 0 0 0